Location: Elm Mott Branch
(32.1549°N, 97.5139°W)
Time: 10:01:49
(UTC+00:00)

Cosmos 1992 Rocket - Pass Details

Date: 18 November 2025
Orbit: 755 x 760 km, 74.0° (Epoch: 07 December)

Event Time Altitude Azimuth Distance (km) Brightness Sun altitude
Rises 12:26:33 0° 199° (SSW) 3,204 7.2 -7.9°
Reaches altitude 10° 12:28:55 10° 201° (SSW) 2,282 6.4 -7.4°
Maximum altitude 12:34:05 74° 287° (WNW) 791 4.0 -6.4°
Drops below altitude 10° 12:39:17 10° 12° (NNE) 2,293 6.4 -5.3°
Sets 12:41:40 0° 15° (NNE) 3,221 7.2 -4.9°
